Weather observations for the past three days for
Grand Marais/Cook County Airport
Imperial (Metric)
Date Time (cdt) Wind (mph) Vis. (mi.) Weather Sky Cond. Temperature (ºF) Relative Humidity Wind Chill (°F) Heat Index (°F) Pressure Precipitation (in)
Air Dwpt 6 hour altimeter (in) sea level (mb) 1 hr 3 hr 6 hr
Max. Min.
16 09:42 Calm 0.25 Light Drizzle OVC001 57.2 57.2 100% 29.69 0.0
16 09:23 SE 5 0.25 Light Drizzle OVC001 57.2 57.2 100% 29.7 0.0
16 09:03 SE 3 0.25 Light Drizzle OVC001 57.2 57.2 100% 29.7 0.0
16 08:44 Calm 0.50 Light Drizzle OVC001 55.4 55.4 100% 29.7 0.0
16 08:24 SE 3 1.25 Light Drizzle OVC001 55.4 55.4 100% 29.7 0.0
16 08:13 SE 3 1.75 Drizzle OVC001 55.4 55.4 100% 29.07 0.0
16 06:24 E 7 0.50 Light Drizzle OVC001 53.6 53.6 100% 29.73 0.0
16 06:04 E 6 0.50 Light Drizzle OVC001 53.6 53.6 100% 29.74 0.0
16 05:44 SE 5 0.25 Drizzle OVC001 53.6 53.6 100% 29.74 0.0
16 05:24 E 5 0.50 Drizzle OVC001 53.6 53.6 100% 29.75 0.0
16 05:04 SE 7 0.50 Drizzle OVC001 53.6 53.6 100% 29.75 0.0
16 04:44 SE 6 1.25 Drizzle OVC001 53.6 53.6 100% 29.76 0.0
16 04:04 SE 8 0.50 Drizzle OVC001 53.6 53.6 100% 29.78 0.0
16 03:44 SE 7 0.25 Drizzle OVC001 55.4 55.4 100% 29.79 0.0
16 03:24 SE 8 0.25 Drizzle OVC001 55.4 55.4 100% 29.8 0.0
16 02:52 SE 5 0.25 Light Drizzle OVC001 55.4 55.4 100% 29.81 0.0
16 02:24 SE 7 1.00 Drizzle OVC001 55.4 55.4 100% 29.83 0.0
16 01:44 S 7 G 16 0.50 Drizzle OVC001 55.4 55.4 100% 29.85 0.0
16 01:24 S 6 3.00 Rain BKN003 OVC006 55.4 55.4 100% 29.87 0.0
16 01:04 S 9 2.50 Heavy Drizzle OVC001 55.4 55.4 100% 29.87 0.0
16 00:44 S 6 3.00 Heavy Drizzle OVC003 55.4 53.6 94% 29.88 0.0
16 00:04 S 6 3.00 Drizzle BKN005 OVC013 55.4 53.6 94% 29.9 0.0
15 23:44 S 7 G 20 3.00 Drizzle SCT008 BKN014 OVC021 55.4 51.8 88% 29.92 0.0
15 23:24 S 8 10.00 Overcast BKN021 OVC027 57.2 46.4 67% 29.93 0.0
15 22:44 SW 9 10.00 Mostly Cloudy SCT038 SCT047 BKN055 57.2 44.6 63% 29.93 0.0
15 22:24 SW 9 10.00 Fair CLR 57.2 44.6 63% 29.93 0.0
15 22:04 SW 6 10.00 Fair CLR 55.4 44.6 67% 29.92 0.0
15 21:44 S 6 10.00 Fair CLR 55.4 42.8 63% 29.92 0.0
15 21:24 S 3 10.00 Fair CLR 55.4 42.8 63% 29.91 0.0
15 21:04 S 3 10.00 Fair CLR 57.2 41 55% 29.91 0.0
15 20:44 SE 3 10.00 Partly Cloudy SCT045 57.2 39.2 51% 29.91 0.0
15 20:24 S 3 10.00 Partly Cloudy SCT043 59 37.4 45% 29.92 0.0
15 19:51 SE 6 10.00 Partly Cloudy SCT004 SCT050 60.8 37.4 42% 29.93 0.0
15 19:31 S 5 10.00 Mostly Cloudy BKN043 BKN050 BKN110 62.6 37.4 39% 29.93 0.0
15 19:04 SE 5 10.00 Mostly Cloudy SCT045 BKN110 62.6 37.4 39% 29.94 0.0
15 18:44 SE 5 10.00 Mostly Cloudy BKN100 62.6 37.4 39% 29.94 0.0
15 18:26 SE 5 10.00 Fair CLR 64.4 37.4 37% 29.95 0.0
15 18:04 S 5 10.00 Fair CLR 64.4 37.4 37% 29.95 0.0
15 17:44 S 3 10.00 Fair CLR 64.4 37.4 37% 29.95 0.0
15 17:24 S 6 10.00 Fair CLR 64.4 39.2 40% 29.96 0.0
15 17:04 S 5 10.00 Partly Cloudy SCT011 64.4 39.2 40% 29.97 0.0
15 16:42 S 7 10.00 Partly Cloudy SCT120 64.4 39.2 40% 29.98 0.0
15 16:04 S 6 10.00 Fair CLR 66.2 37.4 35% 29.98 0.0
15 15:44 S 8 10.00 Fair CLR 66.2 37.4 35% 29.98 0.0
15 15:22 S 7 10.00 Fair CLR 66.2 37.4 35% 29.99 0.0
15 14:50 SW 9 10.00 Fair CLR 66.2 37.4 35% 29.99 0.0
15 14:24 S 9 10.00 Fair CLR 68 37.4 33% 30 0.0
15 13:44 SW 8 10.00 Fair CLR 68 37.4 33% 30.01 0.0
15 13:30 S 7 10.00 Fair CLR 69.8 37.4 31% 30.02 0.0
15 13:04 SW 10 10.00 Fair CLR 69.8 35.6 29% 30.03 0.0
15 12:44 SW 9 G 16 10.00 Fair CLR 69.8 37.4 31% 30.03 0.0
15 12:24 SW 8 10.00 Fair CLR 68 35.6 30% 30.03 0.0
15 12:04 SW 10 10.00 Partly Cloudy SCT090 68 35.6 30% 30.04 0.0
15 11:43 SW 8 10.00 Fair CLR 69.8 35.6 29% 30.04 0.0
15 11:24 S 5 10.00 Fair CLR 68 37.4 33% 30.04 0.0
15 11:03 SW 3 10.00 Partly Cloudy SCT090 66.2 37.4 35% 30.05 0.0
15 10:44 Calm 10.00 Mostly Cloudy BKN090 64.4 37.4 37% 30.05 0.0
15 10:22 Calm 10.00 Mostly Cloudy BKN100 62.6 37.4 39% 30.06 0.0
15 09:43 Calm 10.00 Overcast OVC100 60.8 41 48% 30.07 0.0
15 09:22 Calm 10.00 Mostly Cloudy BKN110 60.8 42.8 52% 30.07 0.0
15 09:02 Calm 10.00 Fair CLR 60.8 39.2 45% 30.07 0.0
15 08:42 Calm 10.00 Fair CLR 60.8 39.2 45% 30.07 0.0
15 08:22 Calm 10.00 Fair CLR 59 39.2 48% 30.08 0.0
15 08:02 S 3 10.00 Fair CLR 60.8 39.2 45% 30.09 0.0
15 07:42 Calm 10.00 Fair CLR 55.4 44.6 67% 30.08 0.0
15 06:02 Calm 10.00 Mostly Cloudy BKN065 BKN080 50 42.8 76% 30.08 0.0
15 05:42 Calm 10.00 Partly Cloudy SCT065 48.2 42.8 82% 30.07 0.0
15 05:22 Calm 10.00 Fair CLR 48.2 39.2 71% 30.07 0.0
15 05:02 N 3 10.00 Fair CLR 44.6 42.8 93% 30.06 0.0
15 04:42 Calm 10.00 Fair CLR 44.6 42.8 93% 30.06 0.0
15 04:22 Calm 10.00 Partly Cloudy SCT065 44.6 42.8 93% 30.05 0.0
15 03:47 Calm 10.00 Fair CLR 44.6 41 87% 30.06 0.0
15 03:22 Calm 10.00 Fair CLR 44.6 39.2 81% 30.07 0.0
15 03:03 Calm 10.00 Fair CLR 44.6 41 87% 30.07 0.0
15 02:42 Calm 10.00 Fair CLR 44.6 39.2 81% 30.06 0.0
15 02:22 Calm 10.00 Fair CLR 46.4 37.4 71% 30.06 0.0
15 02:02 N 3 10.00 Fair CLR 46.4 37.4 71% 30.06 0.0
15 01:43 NE 5 10.00 Fair CLR 44.6 39.2 81% 43 30.07 0.0
15 01:27 N 5 10.00 Fair CLR 44.6 39.2 81% 43 30.08 0.0
15 01:02 Calm 10.00 Fair CLR 44.6 39.2 81% 30.09 0.0
15 00:27 Calm 10.00 Fair CLR 44.6 39.2 81% 30.09 0.0
15 00:08 NE 3 10.00 Fair CLR 44.6 39.2 81% 30.09 0.0
14 23:42 Calm 10.00 Fair CLR 46.4 39.2 76% 30.09 0.0
14 23:22 NE 3 10.00 Fair CLR 46.4 41 82% 30.09 0.0
14 23:02 Calm 10.00 Fair CLR 46.4 41 82% 30.09 0.0
14 22:42 Calm 10.00 Fair CLR 48.2 35.6 62% 30.09 0.0
14 22:11 Calm 10.00 Fair CLR 48.2 30.2 50% 30.09 0.0
14 21:42 Calm 10.00 Fair CLR 50 33.8 54% 30.09 0.0
14 21:22 Calm 10.00 Fair CLR 50 33.8 54% 30.08 0.0
14 21:02 Calm 10.00 Fair CLR 51.8 33.8 50% 30.08 0.0
14 19:27 Calm 10.00 Fair CLR 59 28.4 31% 30.07 0.0
14 19:02 S 5 10.00 Fair CLR 60.8 26.6 27% 30.07 0.0
14 18:42 S 3 10.00 Partly Cloudy SCT100 60.8 26.6 27% 30.08 0.0
14 18:22 SW 5 10.00 Partly Cloudy SCT100 60.8 26.6 27% 30.08 0.0
14 18:06 SW 5 10.00 Fair CLR 60.8 24.8 25% 30.08 0.0
14 17:42 S 6 10.00 Fair CLR 60.8 26.6 27% 30.08 0.0
14 17:08 S 3 10.00 Fair CLR 60.8 26.6 27% 30.09 0.0
14 16:28 S 5 10.00 Partly Cloudy SCT085 60.8 26.6 27% 30.09 0.0
14 16:02 S 7 10.00 Mostly Cloudy BKN085 59 26.6 29% 30.09 0.0
14 15:42 S 5 10.00 Fair CLR 60.8 26.6 27% 30.09 0.0
14 15:26 S 9 10.00 Fair CLR 59 26.6 29% 30.1 0.0
14 15:02 S 5 10.00 Fair CLR 59 26.6 29% 30.1 0.0
14 14:42 S 6 10.00 Fair CLR 57.2 28.4 33% 30.1 0.0
14 14:22 S 6 10.00 Fair CLR 57.2 28.4 33% 30.09 0.0
14 14:02 S 8 10.00 Fair CLR 60.8 30.2 31% 30.09 0.0
14 13:42 S 9 10.00 Fair CLR 60.8 30.2 31% 30.09 0.0
14 13:22 S 8 10.00 Fair CLR 60.8 30.2 31% 30.09 0.0
14 13:04 S 8 10.00 Fair CLR 60.8 30.2 31% 30.08 0.0
14 11:22 S 6 10.00 Fair CLR 60.8 33.8 36% 30.1 0.0
14 11:02 SE 3 10.00 Fair CLR 60.8 33.8 36% 30.1 0.0
14 10:42 S 7 10.00 Fair CLR 59 32 36% 30.1 0.0
14 10:22 S 6 10.00 Fair CLR 59 32 36% 30.1 0.0
14 10:07 S 5 10.00 Fair CLR 59 32 36% 30.09 0.0
14 09:51 S 7 10.00 Fair CLR 59 33.8 39% 30.09 0.0
14 09:22 S 5 10.00 Fair CLR 62.6 35.6 37% 30.08 0.0
14 09:03 S 5 10.00 Fair CLR 62.6 35.6 37% 30.08 0.0
14 08:42 S 5 10.00 Fair CLR 62.6 37.4 39% 30.08 0.0
14 08:22 Calm 10.00 Fair CLR 62.6 28.4 27% 30.07 0.0
14 08:02 Calm 10.00 Fair CLR 60.8 33.8 36% 30.06 0.0
14 07:42 Calm 10.00 Fair CLR 57.2 39.2 51% 30.06 0.0
14 07:07 N 5 10.00 Fair CLR 55.4 42.8 63% 30.05 0.0
14 06:48 N 6 10.00 Fair CLR 53.6 44.6 72% 30.05 0.0
14 06:22 N 5 10.00 Fair CLR 50 48.2 94% 49 30.04 0.0
14 06:02 N 5 10.00 Fair CLR 46.4 46.4 100% 45 30.03 0.0
14 05:42 N 5 10.00 Fair CLR 44.6 44.6 100% 43 30.03 0.0
14 05:22 N 3 10.00 Fair CLR 44.6 42.8 93% 30.02 0.0
14 05:02 N 3 10.00 Fair CLR 44.6 44.6 100% 30.01 0.0
14 04:42 N 5 10.00 Fair CLR 44.6 44.6 100% 43 30 0.0
14 04:22 N 5 10.00 Fair CLR 44.6 44.6 100% 43 29.99 0.0
14 03:51 N 5 10.00 Fair CLR 46.4 44.6 93% 45 29.98 0.0
14 03:22 N 6 10.00 Fair CLR 48.2 46.4 94% 46 29.97 0.0
14 03:02 N 6 10.00 Fair CLR 48.2 44.6 87% 46 29.96 0.0
14 02:42 N 6 10.00 Fair CLR 48.2 44.6 87% 46 29.96 0.0
14 02:23 N 7 10.00 Fair CLR 48.2 46.4 94% 46 29.95 0.0
14 00:30 NW 3 10.00 Fair CLR 51.8 48.2 88% 29.93 0.0
14 00:02 W 3 10.00 Fair CLR 51.8 50 94% 29.92 0.0
13 23:42 Calm 10.00 Fair CLR 48.2 46.4 94% 29.92 0.0
13 23:22 N 3 10.00 Fair CLR 50 48.2 94% 29.91 0.0
13 23:02 N 3 10.00 Fair CLR 51.8 44.6 77% 29.91 0.0
13 22:43 N 5 10.00 Fair CLR 51.8 44.6 77% 29.9 0.0
13 22:22 N 5 10.00 Fair CLR 53.6 44.6 72% 29.9 0.0
13 22:02 N 3 10.00 Fair CLR 53.6 44.6 72% 29.9 0.0
13 21:42 Calm 10.00 Fair CLR 53.6 44.6 72% 29.89 0.0
13 21:23 N 3 10.00 Fair CLR 55.4 44.6 67% 29.88 0.0
13 21:02 Calm 10.00 Fair CLR 55.4 42.8 63% 29.87 0.0
13 20:47 NW 3 10.00 Fair CLR 57.2 42.8 59% 29.87 0.0
13 20:22 N 3 10.00 Fair CLR 57.2 39.2 51% 29.87 0.0
13 20:02 Calm 10.00 Partly Cloudy SCT071 57.2 39.2 51% 29.86 0.0
13 19:42 N 5 10.00 Mostly Cloudy SCT035 SCT060 BKN070 59 39.2 48% 29.86 0.0
13 19:22 N 7 G 20 10.00 Overcast SCT033 BKN039 OVC047 60.8 35.6 39% 29.85 0.0
13 18:41 NW 3 G 20 10.00 Mostly Cloudy SCT047 BKN065 64.4 33.8 32% 29.84 0.0
13 18:22 W 8 10.00 Partly Cloudy SCT065 66.2 32 28% 29.82 0.0
13 18:02 NW 8 G 18 10.00 Fair CLR 66.2 33.8 30% 29.82 0.0
13 17:42 NW 14 G 22 10.00 Fair CLR 66.2 33.8 30% 29.81 0.0
13 17:09 W 12 G 21 10.00 Partly Cloudy SCT046 SCT060 64.4 30.2 28% 29.81 0.0
13 16:42 NW 12 G 24 10.00 Fair CLR 64.4 30.2 28% 29.81 0.0
13 16:21 NW 13 G 22 10.00 Fair CLR 66.2 30.2 26% 29.8 0.0
13 16:05 NW 13 G 18 10.00 Fair CLR 66.2 30.2 26% 29.8 0.0
13 15:21 NW 13 G 23 10.00 Partly Cloudy SCT041 SCT090 62.6 35.6 37% 29.08 0.0
13 14:48 NW 14 G 24 10.00 Mostly Cloudy SCT041 BKN060 64.4 33.8 32% 29.79 0.0
13 14:22 NW 9 G 22 10.00 Partly Cloudy SCT095 64.4 33.8 32% 29.22 0.0
13 14:02 NW 9 G 22 10.00 Fair CLR 66.2 35.6 32% 29.77 0.0
13 13:42 NW 9 G 20 10.00 Thunderstorm in Vicinity SCT025 62.6 35.6 37% 29.77 0.0
13 13:22 NW 13 G 28 7.00 Rain SCT025 SCT035 SCT060 60.8 41 48% 29.77 0.0
13 13:04 NW 10 G 26 10.00 Thunderstorm in Vicinity Light Rain SCT060 64.4 35.6 34% 29.75 0.0
13 12:21 NW 13 G 20 10.00 Thunderstorm in Vicinity SCT050 69.8 30.2 23% 29.71 0.0
13 12:02 NW 8 G 22 10.00 Partly Cloudy SCT045 69.8 30.2 23% 29.7 0.0
13 11:41 NW 10 G 20 10.00 Partly Cloudy SCT045 68 33.8 28% 29.71 0.0
13 11:28 NW 6 G 18 10.00 Partly Cloudy SCT045 68 32 26% 29.71 0.0
13 11:08 NW 12 G 23 10.00 Partly Cloudy SCT034 SCT042 68 35.6 30% 29.07 0.0
Date Time (cdt) Wind (mph) Vis. (mi.) Weather Sky Cond. Air Dwpt Max. Min. Relative Humidity Wind Chill (°F) Heat Index (°F) altimeter (in) sea level (mb) 1 hr 3 hr 6 hr
6 hour
Temperature (ºF) Pressure Precipitation (in)